OREBRO PRIVATE current weather conditions

sailwx.info

Wind from 220 at 3 knots

Air temperature 1.0° C
Visibility: greater than 1.6 NM
Dewpoint 1.0° C
Present weather: Light rain snow.

Last reported at 2015-Mar-03 07:20 UTC.
Time now 2015-Mar-03 09:01 UTC

Location: N 59°14' E 015°03'.
View on Google Maps.

See reports from other nearby stations

  
Tides and Currents Weather Stations Pressure Air Temp Water Temp Dewpoint Dewpoint Depression Visibility Wind Speed Wind Dir Waves Ship Positions
date/time (UTC)wind fromknots sea level pressurealtimeterstation pressurevisibilityair tempwater tempwave heightnotes
2015-Mar-03 07:20 220 3 1.6 1.0 Light rain snow.
2015-Mar-03 06:50 220 2 1.7 1.0 Light rain. Mist.
2015-Mar-03 06:20 220 2 1.6 1.0 Light rain. Mist.
2015-Mar-03 05:50 1.7 1.0 Light rain.
2015-Mar-03 05:20 1.6 1.0 Light rain.
2015-Mar-03 04:50 2.5 1.0 Light snow.
2015-Mar-03 04:20 2.6 1.0 Drizzle.
2015-Mar-03 03:50 350 3 2.6 1.0 Drizzle.
2015-Mar-03 03:20 310 2 3.2 1.0 Drizzle.
2015-Mar-03 02:50 340 3 2.7 1.0 Drizzle.
2015-Mar-03 02:20 360 2 3.2 1.0 Drizzle.
2015-Mar-03 01:50 010 3 3.2 1.0 Drizzle.
2015-Mar-03 01:20 030 4 3.2 1.0 Drizzle.
2015-Mar-03 00:50 020 3 5.4 1.0 Drizzle.
2015-Mar-03 00:20 010 4 5.4 1.0 Light drizzle.
2015-Mar-02 23:50 360 4 1.0
2015-Mar-02 23:20 020 3 1.0
2015-Mar-02 22:50 020 3 5.4 1.0
2015-Mar-02 22:20 360 3 5.4 1.0
2015-Mar-02 21:50 020 4 1.0
2015-Mar-02 21:20 030 4 1.0
2015-Mar-02 20:50 020 5 1.0
2015-Mar-02 20:20 030 5 1.0
2015-Mar-02 19:50 060 3 5.4 2.0
2015-Mar-02 19:20 060 3 5.4 2.0
2015-Mar-02 18:50 070 2 2.0
2015-Mar-02 18:20 100 3 3.0
2015-Mar-02 17:50 090 4 3.0
2015-Mar-02 17:20 100 3 2.0
2015-Mar-02 16:50 110 3 5.0
2015-Mar-02 16:20 130 5 5.0
2015-Mar-02 15:50 150 5 5.4 6.0
2015-Mar-02 15:20 160 5 5.4 6.0
2015-Mar-02 14:50 150 7 5.4 6.0
2015-Mar-02 14:20 180 7 6.0
2015-Mar-02 13:50 190 10 7.0
2015-Mar-02 13:20 190 11 6.0
2015-Mar-02 12:50 190 12 5.4 7.0
2015-Mar-02 12:20 190 13 5.4 7.0
2015-Mar-02 11:50 190 11 5.4 6.0
2015-Mar-02 11:20 190 9 5.4 6.0
2015-Mar-02 10:50 200 12 5.4 6.0
2015-Mar-02 10:20 200 11 5.4 5.0
2015-Mar-02 09:50 190 9 5.4 5.0
2015-Mar-02 09:20 190 10 5.4 5.0
2015-Mar-02 08:50 190 8 5.4 4.0
2015-Mar-02 08:20 190 9 5.4 4.0
2015-Mar-02 07:50 210 7 5.4 4.0
2015-Mar-02 07:20 210 6 5.4 4.0
2015-Mar-02 06:50 180 6 5.4 3.0
2015-Mar-02 06:20 180 7 5.4 3.0
2015-Mar-02 05:50 190 7 5.4 4.0
2015-Mar-02 05:20 200 8 5.4 3.0
2015-Mar-02 04:50 200 9 5.4 3.0
2015-Mar-02 04:20 200 10 5.4 4.0
2015-Mar-02 03:50 200 10 5.4 3.0
2015-Mar-02 03:20 190 10 5.4 3.0 Light drizzle.
2015-Mar-02 02:50 200 9 5.4 3.0
2015-Mar-02 02:20 190 14 5.4 3.0
2015-Mar-02 01:50 180 11 5.4 4.0
2015-Mar-02 01:20 180 12 5.4 4.0
2015-Mar-02 00:50 190 12 5.4 4.0
2015-Mar-02 00:20 190 11 5.4 4.0
2015-Mar-01 23:50 190 12 5.4 4.0 Precipitation.
2015-Mar-01 23:20 180 13 5.4 4.0
2015-Mar-01 22:50 190 13 5.4 4.0
2015-Mar-01 22:20 190 12 5.4 4.0
2015-Mar-01 21:50 180 13 5.4 4.0
2015-Mar-01 21:20 190 12 5.4 4.0
2015-Mar-01 20:50 200 13 5.4 3.0
2015-Mar-01 20:20 190 10 5.4 3.0
2015-Mar-01 19:50 190 9 5.4 3.0
2015-Mar-01 19:20 170 10 5.4 3.0
2015-Mar-01 18:50 190 12 5.4 3.0
2015-Mar-01 18:20 190 10 5.4 3.0
2015-Mar-01 17:50 180 10 5.4 2.0
2015-Mar-01 17:20 160 10 4.9 2.0 Light rain.
2015-Mar-01 16:50 160 10 5.4 2.0 Light drizzle.
2015-Mar-01 16:20 150 10 5.4 2.0
2015-Mar-01 15:50 140 10 5.4 2.0
2015-Mar-01 15:20 150 10 5.4 2.0 Light rain.
2015-Mar-01 14:50 150 10 5.4 2.0 Light rain.
2015-Mar-01 14:20 150 10 5.4 2.0 Light rain.
2015-Mar-01 13:50 150 11 4.9 2.0 Light rain.
2015-Mar-01 13:20 150 11 5.4 2.0 Light rain.
2015-Mar-01 12:50 150 14 4.3 2.0 Light rain.
2015-Mar-01 12:20 150 13 5.4 3.0 Light drizzle.
2015-Mar-01 11:50 150 13 5.4 2.0 Light drizzle.
2015-Mar-01 11:20 160 12 5.4 3.0 Light drizzle.
2015-Mar-01 10:50 160 16 5.4 3.0 Light rain.
2015-Mar-01 10:20 150 14 5.4 3.0 Light snow.
2015-Mar-01 09:50 150 14 5.4 3.0
2015-Mar-01 09:20 150 12 5.4 3.0